| time (UTC) | temp C | wind direction | speed KPH | gust KPH | rain 1hr cm | rain 24hr cm | rain mn cm | humidity % | barometer mb |
| 20260503021501 | 2 | 334 | 8.0 | 0.0 | 0.00 | 0.00 | 0.00 | 59 | 1010.6 |
| 20260503020002 | 1 | 334 | 8.0 | 0.0 | 0.00 | 0.00 | 0.00 | 59 | 1010.6 |
| 20260503014501 | 1 | 340 | 8.0 | 0.0 | 0.00 | 0.00 | 0.00 | 59 | 1010.6 |
| 20260503013002 | 1 | 340 | 6.4 | 0.0 | 0.00 | 0.00 | 0.00 | 59 | 1010.6 |
| 20260503011502 | 1 | 340 | 6.4 | 0.0 | 0.00 | 0.00 | 0.00 | 59 | 1010.6 |
| 20260503010002 | 1 | 340 | 6.4 | 0.0 | 0.00 | 0.00 | 0.00 | 59 | 1010.6 |
| 20260503004502 | 1 | 330 | 9.7 | 0.0 | 0.00 | 0.00 | 0.00 | 59 | 1010.6 |
| 20260503003002 | 1 | 330 | 9.7 | 0.0 | 0.00 | 0.00 | 0.00 | 59 | 1010.6 |
| 20260503001501 | 1 | 330 | 4.8 | 0.0 | 0.00 | 0.00 | 0.00 | 59 | 1010.6 |
| 20260503000002 | 1 | 324 | 0.0 | 0.0 | 0.00 | 0.00 | 0.00 | 59 | 1010.6 |
| 20260502234502 | 1 | 324 | 4.8 | 0.0 | 0.00 | 0.00 | 0.00 | 59 | 1010.6 |
| 20260502233002 | 1 | 324 | 8.0 | 0.0 | 0.00 | 0.00 | 0.00 | 59 | 1010.6 |
| 20260502231502 | 1 | 324 | 0.0 | 0.0 | 0.00 | 0.00 | 0.00 | 59 | 1010.6 |
| 20260502230002 | 1 | 310 | 1.6 | 0.0 | 0.00 | 0.00 | 0.00 | 59 | 1010.6 |
| 20260502224501 | 1 | 310 | 0.0 | 0.0 | 0.00 | 0.00 | 0.00 | 59 | 1010.6 |
| 20260502223002 | 2 | 310 | 11.3 | 0.0 | 0.00 | 0.00 | 0.00 | 59 | 1010.6 |
| 20260502221501 | 2 | 312 | 11.3 | 0.0 | 0.00 | 0.00 | 0.00 | 59 | 1010.6 |
| 20260502220002 | 2 | 312 | 11.3 | 0.0 | 0.00 | 0.00 | 0.00 | 59 | 1010.6 |
| 20260502214502 | 2 | 312 | 0.0 | 0.0 | 0.00 | 0.00 | 0.00 | 59 | 1010.6 |
| 20260502213002 | 2 | 312 | 4.8 | 0.0 | 0.00 | 0.00 | 0.00 | 59 | 1010.6 |
| 20260502211501 | 2 | 312 | 0.0 | 0.0 | 0.00 | 0.00 | 0.00 | 59 | 1010.6 |
| 20260502210002 | 1 | 312 | 0.0 | 0.0 | 0.00 | 0.00 | 0.00 | 59 | 1010.6 |
| 20260502204501 | 2 | 312 | 3.2 | 0.0 | 0.00 | 0.00 | 0.00 | 59 | 1010.6 |
| 20260502203003 | 2 | 312 | 6.4 | 0.0 | 0.00 | 0.00 | 0.00 | 59 | 1010.6 |
| 20260502201501 | 2 | 312 | 9.7 | 0.0 | 0.00 | 0.00 | 0.00 | 59 | 1010.6 |
| 20260502200002 | 3 | 304 | 8.0 | 0.0 | 0.00 | 0.00 | 0.00 | 59 | 1010.6 |
| 20260502194502 | 3 | 304 | 8.0 | 0.0 | 0.00 | 0.00 | 0.00 | 59 | 1010.6 |
| 20260502193002 | 3 | 304 | 0.0 | 0.0 | 0.00 | 0.00 | 0.00 | 59 | 1010.6 |
| 20260502191501 | 4 | 304 | 0.0 | 0.0 | 0.00 | 0.00 | 0.00 | 59 | 1010.6 |
| 20260502190002 | 4 | 304 | 3.2 | 0.0 | 0.00 | 0.00 | 0.00 | 59 | 1010.6 |
| 20260502184501 | 3 | 280 | 0.0 | 0.0 | 0.00 | 0.00 | 0.00 | 59 | 1010.6 |
| 20260502183002 | 5 | 280 | 3.2 | 0.0 | 0.00 | 0.00 | 0.00 | 59 | 1010.6 |
| 20260502181501 | 5 | 206 | 6.4 | 0.0 | 0.00 | 0.00 | 0.00 | 59 | 1010.6 |
| 20260502163002 | 6 | 268 | 1.6 | 0.0 | 0.00 | 0.00 | 0.00 | 59 | 1010.6 |
| 20260502161502 | 6 | 268 | 9.7 | 0.0 | 0.00 | 0.00 | 0.00 | 59 | 1010.6 |
| 20260502151502 | 6 | 264 | 0.0 | 0.0 | 0.00 | 0.00 | 0.00 | 59 | 1010.6 |
| 20260502123001 | 6 | 256 | 8.0 | 0.0 | 0.00 | 0.00 | 0.00 | 59 | 1010.6 |
| 20260502121502 | 6 | 244 | 3.2 | 0.0 | 0.00 | 0.00 | 0.00 | 59 | 1010.6 |
| 20260502114502 | 6 | 244 | 8.0 | 0.0 | 0.00 | 0.00 | 0.00 | 59 | 1010.6 |
| 20260502113002 | 6 | 244 | 11.3 | 0.0 | 0.00 | 0.00 | 0.00 | 59 | 1010.6 |
| 20260502111502 | 7 | 244 | 9.7 | 0.0 | 0.00 | 0.00 | 0.00 | 59 | 1010.6 |
| 20260502110002 | 5 | 244 | 11.3 | 0.0 | 0.00 | 0.00 | 0.00 | 59 | 1010.6 |
| 20260502104502 | 7 | 244 | 11.3 | 0.0 | 0.00 | 0.00 | 0.00 | 59 | 1010.6 |
| 20260502103001 | 8 | 256 | 9.7 | 0.0 | 0.00 | 0.00 | 0.00 | 59 | 1010.6 |
| 20260502101502 | 7 | 256 | 11.3 | 0.0 | 0.00 | 0.00 | 0.00 | 59 | 1010.6 |
| 20260502091502 | 7 | 272 | 12.9 | 0.0 | 0.00 | 0.00 | 0.00 | 59 | 1010.6 |
| 20260502071502 | 9 | 296 | 6.4 | 0.0 | 0.00 | 0.00 | 0.00 | 59 | 1010.6 |
| 20260502070002 | 8 | 296 | 12.9 | 0.0 | 0.00 | 0.00 | 0.00 | 59 | 1010.6 |
| 20260502064502 | 8 | 296 | 11.3 | 0.0 | 0.00 | 0.00 | 0.00 | 59 | 1010.6 |
| 20260502063002 | 10 | 288 | 11.3 | 0.0 | 0.00 | 0.00 | 0.00 | 59 | 1010.6 |
| 20260502061502 | 10 | 288 | 9.7 | 0.0 | 0.00 | 0.00 | 0.00 | 59 | 1010.6 |
| 20260502060002 | 8 | 288 | 16.1 | 0.0 | 0.00 | 0.00 | 0.00 | 59 | 1010.6 |
| 20260502054502 | 8 | 284 | 16.1 | 0.0 | 0.00 | 0.00 | 0.00 | 59 | 1010.6 |
| 20260502053001 | 7 | 284 | 11.3 | 0.0 | 0.00 | 0.00 | 0.00 | 59 | 1010.6 |
| 20260502051502 | 6 | 284 | 9.7 | 0.0 | 0.00 | 0.00 | 0.00 | 59 | 1010.6 |
| 20260502050001 | 6 | 284 | 12.9 | 0.0 | 0.00 | 0.00 | 0.00 | 59 | 1010.6 |
| 20260502044502 | 5 | 278 | 11.3 | 0.0 | 0.00 | 0.00 | 0.00 | 59 | 1010.6 |
| 20260502043001 | 4 | 278 | 6.4 | 0.0 | 0.00 | 0.00 | 0.00 | 59 | 1010.6 |
| 20260502041502 | 2 | 278 | 1.6 | 0.0 | 0.00 | 0.00 | 0.00 | 59 | 1010.6 |
| 20260502040002 | 1 | 276 | 3.2 | 0.0 | 0.00 | 0.00 | 0.00 | 59 | 1010.6 |
| 20260502034502 | 1 | 276 | 0.0 | 0.0 | 0.00 | 0.00 | 0.00 | 59 | 1010.6 |
| 20260502033001 | 1 | 276 | 0.0 | 0.0 | 0.00 | 0.00 | 0.00 | 59 | 1010.6 |
| 20260502031502 | 1 | 276 | 0.0 | 0.0 | 0.00 | 0.00 | 0.00 | 59 | 1010.6 |
| 20260502030001 | 1 | 272 | 0.0 | 0.0 | 0.00 | 0.00 | 0.00 | 59 | 1010.6 |
| 20260502024502 | 1 | 272 | 0.0 | 0.0 | 0.00 | 0.00 | 0.00 | 59 | 1010.6 |
| 20260502023001 | 2 | 272 | 1.6 | 0.0 | 0.00 | 0.00 | 0.00 | 59 | 1010.6 |